Other Surface Observations
Issued by NWS Tucson, AZ

Home | Current Version | Previous Version | Text Only | Print | Product List | Glossary On
Versions: 1 2 3 4 5 6 7 8 9 10 11 12 13 14 15 16 17 18 19 20 21 22 23 24 25 26 27 28 29 30 31 32 33 34 35 36 37 38 39 40 41 42 43 44 45 46 47 48 49 50
503
SXUS55 KTWC 161815
OSOTWC

WEATHER ROUNDUP FOR SOUTHEAST ARIZONA
NATIONAL WEATHER SERVICE TUCSON AZ
1115 AM MST TUE JAN 16 2018

AZZ504>506-514-161915-
LOCATION       SKY/WX    TMP DP  RH WIND       PRES   REMARKS
TUCSON         MOSUNNY   66  23  19 SE18G25   30.21R
DAVIS-MONTHAN  SUNNY     65  23  20 E9        30.19S
CHILDRENS PARK N/A      N/A N/A  25 SE2               PIMA CO DEQ
ALVERNON/22ND  N/A       61 N/A N/A E8                PIMA CO DEQ
CHERRY/GLENN   N/A       61 N/A N/A NE2               PIMA CO DEQ
TANGERINE      N/A       64 N/A N/A E2                PIMA CO DEQ
CONTL RANCH    N/A       59  28  31 SE5               PIMA CO DEQ
GRANT/1ST      N/A       58  24  27 SE3               PIMA CO DEQ
CRAYCROFT/22ND N/A       61  24  24 SE8               PIMA CO DEQ
GOLFLINKS/KOLB N/A       59  23  25 SE7               PIMA CO DEQ
AJO/12TH       N/A       62  25  24 SE9               PIMA CO DEQ
FAIRGROUNDS    N/A       57 N/A N/A SE22              PIMA CO DEQ
SAGUARO        N/A       66  26  22 CALM              *SABINO CYN
SAN CARLOS     N/A       51  24  35 E9G15             *SAN CARLOS
GREEN VALLEY   N/A       57  26  30 S5                PIMA CO DEQ
HORSE CAMP CYN N/A       45  21  39 E23G33            *ARAVAIPA CYN
RINCON MTNS    N/A       51  16  25 SW3               *NR MANNING CAMP
$$

AZZ509>511-161915-
LOCATION       SKY/WX    TMP DP  RH WIND       PRES   REMARKS
SAFFORD        SUNNY     47  20  34 S15       30.41R
STRAY HORSE    N/A       35  18  50 E3                *
TRAIL CABIN    N/A       36  21  55 E9G16             *N OF GRANVILLE
BLACK HILLS    NOT AVBL
DRY LAKE       N/A       38  22  53 SE10G18           *NATANES MTNS
NOON CREEK     N/A       39  18  43 S11G23            *PINALENO MTNS
COLUMBINE      N/A       45  11  25 W3                *PINALENO MTNS
GUTHRIE        N/A       30  17  58 E8G14             *SW OF GUTHRIE
$$

AZZ502-503-513-161915-
LOCATION       SKY/WX    TMP DP  RH WIND       PRES   REMARKS
NOGALES        SUNNY     66  20  17 VRB5      30.20S
SELLS          N/A       65  30  27 N2                *
SASABE         N/A       67  26  21 SW2               *ALTAR VLY
HOPKINS        N/A       61  20  20 SW3               *SANTA RITA MTNS
CARR CYN       N/A       58  24  27 NE2               *W OF HEREFORD
$$

AZZ507-508-512-161915-
LOCATION       SKY/WX    TMP DP  RH WIND       PRES   REMARKS
SIERRA VISTA   CLOUDY    56  21  26 E7        30.29S
DOUGLAS        SUNNY     50  23  34 E13       30.31R
EMPIRE MTNS    NOT AVBL
MULESHOE RANCH N/A       46  22  38 NE17G29           *PRESERVE
HEADQUARTERS   N/A       37  19  48 E11G23            *CHIRICAHUA MTNS
$$

.............................NOTES.............................
THIS IS AN AUTOMATED COLLECTIVE WITH MINIMAL QUALITY CONTROL.
PIMA CO DEQ SITES HAVE NONSTANDARD WIND SENSOR HEIGHTS.
PIMA CO DEQ SITES DO NOT REPORT WIND GUSTS.
* INDICATES WIND SENSORS LOCATED AT 20 FEET INSTEAD OF 33 FEET.
..............................KEY..............................
SKY/WX - SKY CONDITION/WEATHER
TMP    - TEMPERATURE IN FAHRENHEIT
DP     - DEWPOINT IN FAHRENHEIT
RH     - RELATIVE HUMIDITY IN PERCENT
WIND   - DIRECTION AND SPEED IN MILES PER HOUR (MPH)
VRB    - VARIABLE WIND DIRECTION
PRES   - MEAN SEA LEVEL PRESSURE IN INCHES OF MERCURY
         F - FALLING PRESSURE   R - RISING PRESSURE
         S - STEADY PRESSURE
VSB    - VISIBILITY IN MILES
HX     - HEAT INDEX IN FAHRENHEIT
WCI    - WIND CHILL INDEX IN FAHRENHEIT
N/A    - NOT AVAILABLE
AFB    - AIR FORCE BASE
         DAVIS-MONTHAN IS DAVIS-MONTHAN AIR FORCE BASE
CYN    - CANYON
MTNS   - MOUNTAINS
NCA    - NATIONAL CONSERVATION AREA
NR     - NEAR
VLY    - VALLEY
CONTL  - CONTINENTAL
PIMA CO DEQ - PIMA COUNTY DEPT OF ENVIRONMENTAL QUALITY



USA.gov is the U.S. government's official web portal to all federal, state and local government web resources and services.